| time (UTC) | temp F | wind direction | speed MPH | gust MPH | rain 1hr in | rain 24hr in | rain mn in | humidity % | barometer mb |
| 20260510093501 | 63 | 238 | 0.0 | 0.0 | 0.00 | 0.00 | 0.00 | 99 | 1011.7 |
| 20260510092957 | 63 | 237 | 0.0 | 0.0 | 0.00 | 0.00 | 0.00 | 99 | 1011.6 |
| 20260510092454 | 63 | 238 | 0.0 | 0.0 | 0.00 | 0.00 | 0.00 | 99 | 1011.6 |
| 20260510091948 | 63 | 238 | 0.0 | 0.0 | 0.00 | 0.00 | 0.00 | 99 | 1011.5 |
| 20260510091446 | 63 | 237 | 0.0 | 0.0 | 0.00 | 0.00 | 0.00 | 99 | 1011.5 |
| 20260510090942 | 63 | 237 | 0.0 | 0.0 | 0.00 | 0.00 | 0.00 | 99 | 1011.3 |
| 20260510090439 | 62 | 235 | 0.0 | 0.0 | 0.00 | 0.00 | 0.00 | 99 | 1011.2 |
| 20260510085934 | 62 | 235 | 0.0 | 0.0 | 0.00 | 0.00 | 0.00 | 99 | 1011.3 |
| 20260510085430 | 62 | 237 | 0.0 | 0.0 | 0.00 | 0.00 | 0.00 | 99 | 1011.2 |
| 20260510084925 | 62 | 237 | 0.0 | 0.0 | 0.00 | 0.00 | 0.00 | 99 | 1011.1 |
| 20260510084423 | 62 | 237 | 0.0 | 0.0 | 0.00 | 0.00 | 0.00 | 99 | 1011.1 |
| 20260510083920 | 62 | 236 | 0.0 | 0.0 | 0.00 | 0.00 | 0.00 | 99 | 1011.1 |
| 20260510083416 | 62 | 236 | 0.0 | 0.0 | 0.00 | 0.00 | 0.00 | 99 | 1011.0 |
| 20260510082911 | 62 | 236 | 0.0 | 0.0 | 0.00 | 0.00 | 0.00 | 99 | 1011.0 |
| 20260510082409 | 62 | 236 | 0.0 | 0.0 | 0.00 | 0.00 | 0.00 | 99 | 1010.8 |
| 20260510081908 | 62 | 237 | 0.0 | 0.0 | 0.00 | 0.00 | 0.00 | 99 | 1011.0 |
| 20260510081404 | 62 | 237 | 0.0 | 0.0 | 0.00 | 0.00 | 0.00 | 99 | 1010.8 |
| 20260510080901 | 62 | 236 | 0.0 | 0.0 | 0.00 | 0.00 | 0.00 | 99 | 1010.7 |
| 20260510080359 | 63 | 236 | 0.0 | 0.0 | 0.00 | 0.00 | 0.00 | 99 | 1010.9 |
| 20260510075857 | 63 | 236 | 0.0 | 0.0 | 0.00 | 0.00 | 0.00 | 99 | 1011.0 |
| 20260510075355 | 63 | 236 | 0.0 | 0.0 | 0.00 | 0.00 | 0.00 | 99 | 1010.8 |
| 20260510074851 | 63 | 237 | 0.0 | 0.0 | 0.00 | 0.00 | 0.00 | 99 | 1010.9 |
| 20260510074348 | 63 | 237 | 0.0 | 0.0 | 0.00 | 0.00 | 0.00 | 99 | 1010.9 |
| 20260510073844 | 63 | 236 | 0.0 | 0.0 | 0.00 | 0.00 | 0.00 | 99 | 1010.9 |
| 20260510073340 | 63 | 237 | 0.0 | 0.0 | 0.00 | 0.00 | 0.00 | 99 | 1010.8 |
| 20260510072836 | 63 | 237 | 0.0 | 0.0 | 0.00 | 0.00 | 0.00 | 99 | 1010.8 |
| 20260510072334 | 63 | 236 | 0.0 | 0.0 | 0.00 | 0.00 | 0.00 | 99 | 1010.7 |
| 20260510071830 | 63 | 237 | 0.0 | 0.0 | 0.00 | 0.00 | 0.00 | 99 | 1011.0 |
| 20260510071326 | 63 | 237 | 0.0 | 0.0 | 0.00 | 0.00 | 0.00 | 99 | 1010.8 |
| 20260510070825 | 63 | 236 | 0.0 | 0.0 | 0.00 | 0.00 | 0.00 | 99 | 1010.8 |
| 20260510070321 | 63 | 236 | 0.0 | 0.0 | 0.00 | 0.00 | 0.00 | 99 | 1011.0 |
| 20260510065816 | 64 | 236 | 0.0 | 0.0 | 0.00 | 0.00 | 0.00 | 99 | 1011.0 |
| 20260510065313 | 64 | 236 | 0.0 | 0.0 | 0.00 | 0.00 | 0.00 | 99 | 1010.8 |
| 20260510064810 | 64 | 238 | 0.0 | 0.0 | 0.00 | 0.00 | 0.00 | 99 | 1010.8 |
| 20260510064308 | 64 | 238 | 0.0 | 0.0 | 0.00 | 0.00 | 0.00 | 99 | 1011.1 |
| 20260510063809 | 64 | 238 | 0.0 | 0.0 | 0.00 | 0.00 | 0.00 | 99 | 1011.0 |
| 20260510063305 | 64 | 238 | 0.0 | 0.0 | 0.00 | 0.00 | 0.00 | 99 | 1010.9 |
| 20260510062802 | 64 | 238 | 0.0 | 0.0 | 0.00 | 0.00 | 0.00 | 99 | 1010.7 |
| 20260510062257 | 64 | 238 | 0.0 | 0.0 | 0.00 | 0.00 | 0.00 | 99 | 1010.4 |
| 20260510061753 | 64 | 238 | 0.0 | 0.0 | 0.00 | 0.00 | 0.00 | 99 | 1010.8 |
| 20260510061251 | 64 | 238 | 0.0 | 0.0 | 0.00 | 0.00 | 0.00 | 99 | 1010.6 |
| 20260510060746 | 64 | 238 | 0.0 | 0.0 | 0.00 | 0.00 | 0.00 | 99 | 1010.8 |
| 20260510060243 | 64 | 238 | 0.0 | 0.0 | 0.00 | 0.00 | 0.00 | 99 | 1010.9 |
| 20260510055740 | 64 | 238 | 0.0 | 0.0 | 0.00 | 0.00 | 0.00 | 99 | 1010.8 |
| 20260510055239 | 65 | 238 | 0.0 | 0.0 | 0.00 | 0.00 | 0.00 | 99 | 1010.7 |
| 20260510054738 | 65 | 238 | 0.0 | 0.0 | 0.00 | 0.00 | 0.00 | 99 | 1010.9 |
| 20260510054234 | 65 | 238 | 0.0 | 0.0 | 0.00 | 0.00 | 0.00 | 99 | 1011.1 |
| 20260510053733 | 65 | 237 | 0.0 | 0.0 | 0.00 | 0.00 | 0.00 | 99 | 1010.7 |
| 20260510053231 | 65 | 237 | 0.0 | 0.0 | 0.00 | 0.00 | 0.00 | 99 | 1011.2 |
| 20260510052726 | 65 | 237 | 0.0 | 0.0 | 0.00 | 0.00 | 0.00 | 99 | 1011.1 |
| 20260510052223 | 65 | 237 | 0.0 | 0.0 | 0.00 | 0.00 | 0.00 | 99 | 1010.7 |
| 20260510051718 | 65 | 237 | 0.0 | 0.0 | 0.00 | 0.00 | 0.00 | 98 | 1010.9 |
| 20260510051215 | 65 | 237 | 0.0 | 0.0 | 0.00 | 0.00 | 0.00 | 98 | 1010.7 |
| 20260510050712 | 66 | 237 | 0.0 | 0.0 | 0.00 | 0.00 | 0.00 | 98 | 1011.0 |
| 20260510050209 | 66 | 237 | 0.0 | 0.0 | 0.00 | 0.00 | 0.00 | 98 | 1011.0 |
| 20260510045706 | 66 | 237 | 0.0 | 0.0 | 0.00 | 0.00 | 0.00 | 98 | 1010.9 |
| 20260510045203 | 66 | 237 | 0.0 | 0.0 | 0.00 | 0.00 | 0.00 | 98 | 1010.8 |
| 20260510044659 | 66 | 237 | 0.0 | 0.0 | 0.00 | 0.00 | 0.00 | 97 | 1010.8 |
| 20260510044157 | 66 | 237 | 0.0 | 0.0 | 0.00 | 0.00 | 0.00 | 97 | 1011.0 |
| 20260510043652 | 66 | 237 | 0.0 | 0.0 | 0.00 | 0.00 | 0.00 | 97 | 1011.1 |
| 20260510043149 | 66 | 237 | 0.0 | 0.0 | 0.00 | 0.00 | 0.00 | 97 | 1011.1 |
| 20260510042646 | 67 | 237 | 0.0 | 0.0 | 0.00 | 0.00 | 0.00 | 96 | 1011.1 |
| 20260510042142 | 67 | 236 | 0.0 | 0.0 | 0.00 | 0.00 | 0.00 | 96 | 1011.0 |
| 20260510041639 | 67 | 234 | 0.0 | 0.0 | 0.00 | 0.00 | 0.00 | 96 | 1011.2 |
| 20260510041136 | 67 | 231 | 0.0 | 0.0 | 0.00 | 0.00 | 0.00 | 96 | 1011.2 |
| 20260510040634 | 67 | 231 | 0.0 | 0.0 | 0.00 | 0.00 | 0.00 | 96 | 1011.1 |
| 20260510040130 | 67 | 238 | 0.0 | 0.0 | 0.00 | 0.00 | 0.00 | 96 | 1011.5 |
| 20260510035626 | 68 | 237 | 0.0 | 0.0 | 0.00 | 0.68 | 0.68 | 96 | 1011.3 |
| 20260510035121 | 68 | 237 | 0.0 | 0.0 | 0.00 | 0.68 | 0.68 | 96 | 1011.4 |
| 20260510034618 | 68 | 237 | 0.0 | 0.0 | 0.00 | 0.68 | 0.68 | 96 | 1011.2 |
| 20260510034116 | 68 | 222 | 0.0 | 0.0 | 0.00 | 0.68 | 0.68 | 96 | 1011.3 |
| 20260510033612 | 68 | 229 | 0.0 | 0.0 | 0.00 | 0.68 | 0.68 | 96 | 1011.6 |
| 20260510033110 | 68 | 229 | 0.0 | 0.0 | 0.00 | 0.68 | 0.68 | 96 | 1011.7 |
| 20260510032606 | 68 | 229 | 0.0 | 0.0 | 0.00 | 0.68 | 0.68 | 96 | 1011.6 |
| 20260510032101 | 68 | 229 | 0.0 | 0.0 | 0.00 | 0.68 | 0.68 | 96 | 1011.6 |
| 20260510031556 | 68 | 220 | 0.0 | 0.0 | 0.00 | 0.68 | 0.68 | 95 | 1011.2 |
| 20260510031053 | 68 | 230 | 0.0 | 0.0 | 0.00 | 0.68 | 0.68 | 95 | 1011.2 |
| 20260510030548 | 68 | 229 | 0.0 | 0.0 | 0.00 | 0.68 | 0.68 | 95 | 1011.3 |
| 20260510030046 | 68 | 232 | 0.0 | 0.0 | 0.00 | 0.68 | 0.68 | 95 | 1011.4 |
| 20260510025543 | 68 | 239 | 0.0 | 0.0 | 0.00 | 0.68 | 0.68 | 95 | 1011.4 |
| 20260510025040 | 68 | 240 | 0.0 | 0.0 | 0.00 | 0.68 | 0.68 | 95 | 1011.4 |
| 20260510024537 | 69 | 239 | 0.0 | 0.0 | 0.00 | 0.68 | 0.68 | 95 | 1011.4 |
| 20260510024033 | 69 | 238 | 0.0 | 0.0 | 0.00 | 0.68 | 0.68 | 95 | 1011.6 |
| 20260510023529 | 69 | 234 | 0.0 | 0.0 | 0.00 | 0.68 | 0.68 | 95 | 1011.0 |
| 20260510023026 | 69 | 231 | 0.0 | 0.0 | 0.00 | 0.68 | 0.68 | 95 | 1011.4 |
| 20260510022526 | 69 | 226 | 0.0 | 0.0 | 0.00 | 0.68 | 0.68 | 95 | 1011.2 |
| 20260510022020 | 69 | 225 | 0.0 | 0.0 | 0.00 | 0.68 | 0.68 | 95 | 1011.1 |
| 20260510021517 | 69 | 231 | 0.0 | 0.0 | 0.00 | 0.68 | 0.68 | 95 | 1010.9 |
| 20260510021015 | 69 | 236 | 0.0 | 0.0 | 0.00 | 0.68 | 0.68 | 95 | 1010.9 |
| 20260510020509 | 69 | 238 | 0.0 | 0.0 | 0.00 | 0.68 | 0.68 | 95 | 1010.9 |
| 20260510020004 | 69 | 238 | 0.0 | 0.0 | 0.00 | 0.68 | 0.68 | 95 | 1010.8 |
| 20260510015454 | 69 | 234 | 0.0 | 0.0 | 0.00 | 0.68 | 0.68 | 94 | 1010.7 |
| 20260510014949 | 69 | 238 | 0.0 | 0.0 | 0.00 | 0.68 | 0.68 | 94 | 1010.6 |
| 20260510014447 | 70 | 242 | 0.0 | 0.0 | 0.00 | 0.68 | 0.68 | 94 | 1010.6 |
| 20260510013943 | 70 | 241 | 0.0 | 0.0 | 0.00 | 0.68 | 0.68 | 94 | 1010.7 |
| 20260510013433 | 70 | 242 | 0.0 | 0.0 | 0.00 | 0.68 | 0.68 | 94 | 1010.3 |
| 20260510012929 | 70 | 239 | 0.0 | 0.0 | 0.00 | 0.68 | 0.68 | 94 | 1010.3 |
| 20260510012424 | 70 | 237 | 0.0 | 0.0 | 0.00 | 0.68 | 0.68 | 94 | 1010.3 |
| 20260510011919 | 70 | 238 | 0.0 | 0.0 | 0.00 | 0.68 | 0.68 | 94 | 1010.0 |
| 20260510011414 | 70 | 239 | 0.0 | 0.0 | 0.00 | 0.68 | 0.68 | 94 | 1009.9 |
| 20260510010910 | 71 | 241 | 0.0 | 0.0 | 0.00 | 0.68 | 0.68 | 94 | 1009.7 |
| 20260510010408 | 71 | 237 | 0.0 | 0.0 | 0.00 | 0.68 | 0.68 | 94 | 1009.8 |
| 20260510005904 | 71 | 243 | 0.0 | 0.0 | 0.00 | 0.68 | 0.68 | 94 | 1009.6 |
| 20260510005400 | 71 | 240 | 0.0 | 0.0 | 0.00 | 0.68 | 0.68 | 94 | 1009.6 |
| 20260510004858 | 71 | 238 | 0.0 | 0.0 | 0.00 | 0.68 | 0.68 | 94 | 1009.4 |
| 20260510004355 | 71 | 242 | 0.0 | 0.0 | 0.00 | 0.68 | 0.68 | 93 | 1009.4 |
| 20260510003853 | 71 | 241 | 0.0 | 0.0 | 0.00 | 0.68 | 0.68 | 94 | 1009.5 |
| 20260510003350 | 72 | 240 | 0.0 | 0.0 | 0.00 | 0.68 | 0.68 | 93 | 1009.2 |
| 20260510002848 | 72 | 236 | 0.0 | 0.0 | 0.00 | 0.68 | 0.68 | 93 | 1009.2 |
| 20260510002346 | 72 | 235 | 0.0 | 0.0 | 0.00 | 0.68 | 0.68 | 93 | 1009.3 |
| 20260510001843 | 72 | 236 | 0.0 | 0.0 | 0.00 | 0.68 | 0.68 | 93 | 1009.1 |
| 20260510001341 | 72 | 239 | 0.0 | 0.0 | 0.00 | 0.68 | 0.68 | 92 | 1009.1 |
| 20260510000837 | 72 | 203 | 0.0 | 0.0 | 0.00 | 0.68 | 0.68 | 92 | 1009.2 |
| 20260510000334 | 72 | 239 | 0.0 | 0.0 | 0.00 | 0.68 | 0.68 | 92 | 1009.0 |
| 20260509235830 | 73 | 239 | 0.0 | 0.0 | 0.00 | 0.68 | 0.68 | 92 | 1009.1 |
| 20260509235327 | 73 | 246 | 0.0 | 0.0 | 0.00 | 0.68 | 0.68 | 91 | 1009.1 |
| 20260509234823 | 73 | 237 | 0.0 | 0.0 | 0.00 | 0.68 | 0.68 | 90 | 1008.9 |
| 20260509234320 | 73 | 244 | 0.0 | 0.0 | 0.00 | 0.68 | 0.68 | 90 | 1008.8 |
| 20260509233818 | 73 | 236 | 0.0 | 0.0 | 0.00 | 0.68 | 0.68 | 90 | 1008.6 |
| 20260509233316 | 73 | 244 | 0.0 | 0.0 | 0.00 | 0.68 | 0.68 | 89 | 1008.7 |
| 20260509232811 | 73 | 239 | 0.0 | 0.0 | 0.00 | 0.68 | 0.68 | 90 | 1008.6 |
| 20260509232309 | 73 | 241 | 0.0 | 0.0 | 0.00 | 0.68 | 0.68 | 89 | 1008.4 |
| 20260509231805 | 73 | 245 | 0.0 | 0.0 | 0.00 | 0.68 | 0.68 | 89 | 1008.6 |
| 20260509231302 | 73 | 221 | 0.0 | 0.0 | 0.00 | 0.68 | 0.68 | 90 | 1008.5 |
| 20260509230800 | 73 | 237 | 0.0 | 0.0 | 0.00 | 0.68 | 0.68 | 89 | 1008.6 |
| 20260509230256 | 73 | 241 | 0.0 | 0.0 | 0.00 | 0.68 | 0.68 | 89 | 1008.6 |
| 20260509225751 | 73 | 240 | 0.0 | 0.0 | 0.00 | 0.68 | 0.68 | 89 | 1008.7 |
| 20260509225248 | 73 | 243 | 0.0 | 0.0 | 0.00 | 0.68 | 0.68 | 89 | 1008.5 |
| 20260509224744 | 73 | 244 | 0.0 | 0.0 | 0.00 | 0.68 | 0.68 | 89 | 1008.5 |
| 20260509224241 | 73 | 238 | 0.0 | 0.0 | 0.00 | 0.68 | 0.68 | 89 | 1008.5 |
| 20260509223738 | 73 | 248 | 0.0 | 0.0 | 0.00 | 0.68 | 0.68 | 89 | 1008.3 |
| 20260509223235 | 73 | 242 | 0.0 | 0.0 | 0.00 | 0.68 | 0.68 | 88 | 1008.3 |
| 20260509222732 | 73 | 242 | 0.0 | 0.0 | 0.00 | 0.68 | 0.68 | 88 | 1008.5 |
| 20260509222227 | 73 | 242 | 0.0 | 0.0 | 0.00 | 0.68 | 0.68 | 88 | 1008.3 |
| 20260509221723 | 73 | 266 | 0.0 | 0.0 | 0.00 | 0.68 | 0.68 | 88 | 1008.1 |
| 20260509221219 | 73 | 248 | 0.0 | 0.0 | 0.00 | 0.68 | 0.68 | 87 | 1008.4 |
| 20260509220715 | 73 | 253 | 0.0 | 0.0 | 0.00 | 0.68 | 0.68 | 86 | 1008.0 |
| 20260509220212 | 73 | 241 | 0.0 | 0.0 | 0.00 | 0.68 | 0.68 | 87 | 1008.1 |
| 20260509215707 | 73 | 261 | 0.0 | 1.0 | 0.00 | 0.68 | 0.68 | 86 | 1008.4 |
| 20260509215204 | 73 | 286 | 0.0 | 0.0 | 0.00 | 0.68 | 0.68 | 86 | 1008.5 |
| 20260509214702 | 73 | 251 | 0.0 | 0.0 | 0.00 | 0.68 | 0.68 | 87 | 1008.3 |
| 20260509214159 | 74 | 257 | 0.0 | 0.0 | 0.00 | 0.68 | 0.68 | 86 | 1008.1 |
| 20260509213655 | 74 | 250 | 0.0 | 0.0 | 0.00 | 0.68 | 0.68 | 86 | 1008.1 |
| 20260509213151 | 74 | 244 | 0.0 | 0.0 | 0.00 | 0.68 | 0.68 | 85 | 1008.3 |
| 20260509212648 | 75 | 252 | 0.0 | 1.0 | 0.00 | 0.68 | 0.68 | 85 | 1008.1 |
| 20260509212145 | 75 | 250 | 1.0 | 1.0 | 0.00 | 0.68 | 0.68 | 85 | 1008.0 |
| 20260509211641 | 75 | 246 | 0.0 | 0.0 | 0.00 | 0.68 | 0.68 | 84 | 1007.7 |
| 20260509211138 | 75 | 256 | 0.0 | 0.0 | 0.00 | 0.68 | 0.68 | 85 | 1008.0 |
| 20260509210635 | 75 | 250 | 0.0 | 0.0 | 0.00 | 0.68 | 0.68 | 85 | 1008.0 |
| 20260509210132 | 75 | 240 | 0.0 | 0.0 | 0.00 | 0.68 | 0.68 | 84 | 1008.1 |
| 20260509205626 | 75 | 248 | 0.0 | 0.0 | 0.00 | 0.68 | 0.68 | 83 | 1007.9 |
| 20260509205121 | 75 | 247 | 0.0 | 0.0 | 0.00 | 0.68 | 0.68 | 83 | 1008.0 |
| 20260509204618 | 76 | 236 | 0.0 | 0.0 | 0.00 | 0.68 | 0.68 | 84 | 1008.1 |
| 20260509204114 | 75 | 264 | 0.0 | 1.0 | 0.00 | 0.68 | 0.68 | 83 | 1008.4 |
| 20260509203610 | 75 | 259 | 0.0 | 0.0 | 0.00 | 0.68 | 0.68 | 83 | 1008.5 |
| 20260509203108 | 75 | 251 | 0.0 | 0.0 | 0.00 | 0.68 | 0.68 | 83 | 1008.3 |
| 20260509202603 | 75 | 262 | 1.0 | 1.0 | 0.00 | 0.68 | 0.68 | 83 | 1008.6 |
| 20260509202058 | 75 | 227 | 0.0 | 0.0 | 0.00 | 0.68 | 0.68 | 85 | 1008.6 |
| 20260509201553 | 75 | 244 | 0.0 | 0.0 | 0.00 | 0.68 | 0.68 | 85 | 1008.6 |
| 20260509201051 | 75 | 242 | 0.0 | 0.0 | 0.00 | 0.68 | 0.68 | 85 | 1008.5 |
| 20260509200550 | 74 | 247 | 0.0 | 0.0 | 0.00 | 0.68 | 0.68 | 84 | 1008.6 |
| 20260509200047 | 74 | 241 | 0.0 | 0.0 | 0.00 | 0.68 | 0.68 | 84 | 1008.5 |
| 20260509195543 | 74 | 260 | 0.0 | 0.0 | 0.00 | 0.68 | 0.68 | 84 | 1009.0 |
| 20260509195038 | 74 | 251 | 0.0 | 0.0 | 0.00 | 0.68 | 0.68 | 86 | 1008.9 |
| 20260509194533 | 73 | 245 | 0.0 | 0.0 | 0.00 | 0.68 | 0.68 | 87 | 1008.9 |
| 20260509194030 | 73 | 227 | 0.0 | 0.0 | 0.00 | 0.68 | 0.68 | 88 | 1009.2 |
| 20260509193525 | 73 | 239 | 0.0 | 0.0 | 0.00 | 0.68 | 0.68 | 88 | 1009.0 |
| 20260509193022 | 73 | 217 | 0.0 | 0.0 | 0.00 | 0.68 | 0.68 | 87 | 1009.0 |
| 20260509192518 | 73 | 246 | 0.0 | 0.0 | 0.00 | 0.68 | 0.68 | 87 | 1009.2 |
| 20260509192013 | 73 | 217 | 0.0 | 0.0 | 0.00 | 0.68 | 0.68 | 87 | 1009.0 |
| 20260509191508 | 73 | 253 | 0.0 | 0.0 | 0.00 | 0.68 | 0.68 | 86 | 1009.0 |
| 20260509191004 | 73 | 235 | 0.0 | 0.0 | 0.00 | 0.68 | 0.68 | 88 | 1009.1 |
| 20260509190501 | 72 | 297 | 1.0 | 2.0 | 0.00 | 0.68 | 0.68 | 88 | 1008.9 |
| 20260509185959 | 73 | 237 | 0.0 | 0.0 | 0.00 | 0.68 | 0.68 | 89 | 1009.0 |
| 20260509185455 | 73 | 240 | 0.0 | 0.0 | 0.00 | 0.68 | 0.68 | 88 | 1009.0 |
| 20260509184952 | 72 | 275 | 0.0 | 1.0 | 0.00 | 0.68 | 0.68 | 90 | 1009.2 |
| 20260509184450 | 72 | 202 | 0.0 | 0.0 | 0.00 | 0.68 | 0.68 | 90 | 1008.8 |
| 20260509183946 | 72 | 243 | 0.0 | 0.0 | 0.00 | 0.68 | 0.68 | 91 | 1008.8 |
| 20260509183441 | 72 | 236 | 0.0 | 0.0 | 0.00 | 0.68 | 0.68 | 92 | 1008.6 |
| 20260509182938 | 71 | 243 | 0.0 | 0.0 | 0.00 | 0.68 | 0.68 | 92 | 1009.0 |
| 20260509182434 | 71 | 244 | 0.0 | 0.0 | 0.00 | 0.68 | 0.68 | 93 | 1009.3 |
| 20260509181932 | 69 | 251 | 0.0 | 0.0 | 0.00 | 0.68 | 0.68 | 97 | 1009.2 |
| 20260509181430 | 68 | 244 | 0.0 | 0.0 | 0.00 | 0.68 | 0.68 | 99 | 1009.4 |
| 20260509180927 | 69 | 235 | 0.0 | 0.0 | 0.00 | 0.68 | 0.68 | 99 | 1009.3 |
| 20260509180422 | 69 | 242 | 0.0 | 0.0 | 0.00 | 0.68 | 0.68 | 99 | 1009.5 |
| 20260509175919 | 68 | 237 | 0.0 | 0.0 | 0.00 | 0.68 | 0.68 | 99 | 1009.6 |
| 20260509175414 | 68 | 248 | 0.0 | 0.0 | 0.00 | 0.68 | 0.68 | 99 | 1009.7 |
| 20260509174911 | 68 | 248 | 0.0 | 0.0 | 0.00 | 0.68 | 0.68 | 99 | 1009.8 |
| 20260509174407 | 68 | 244 | 0.0 | 0.0 | 0.00 | 0.68 | 0.68 | 99 | 1009.8 |
| 20260509173904 | 69 | 247 | 0.0 | 0.0 | 0.00 | 0.68 | 0.68 | 99 | 1009.6 |
| 20260509173358 | 69 | 244 | 0.0 | 0.0 | 0.00 | 0.68 | 0.68 | 99 | 1009.6 |
| 20260509172854 | 69 | 247 | 0.0 | 0.0 | 0.00 | 0.68 | 0.68 | 99 | 1009.9 |
| 20260509172351 | 68 | 248 | 0.0 | 0.0 | 0.00 | 0.68 | 0.68 | 99 | 1009.7 |
| 20260509171846 | 68 | 251 | 0.0 | 0.0 | 0.00 | 0.68 | 0.68 | 99 | 1010.0 |
| 20260509171337 | 68 | 247 | 0.0 | 0.0 | 0.00 | 0.68 | 0.68 | 99 | 1009.9 |
| 20260509170834 | 68 | 249 | 0.0 | 0.0 | 0.00 | 0.68 | 0.68 | 99 | 1010.1 |
| 20260509170329 | 68 | 249 | 0.0 | 0.0 | 0.00 | 0.68 | 0.68 | 99 | 1010.3 |
| 20260509165824 | 68 | 248 | 0.0 | 0.0 | 0.00 | 0.68 | 0.68 | 99 | 1010.2 |
| 20260509165319 | 68 | 248 | 0.0 | 0.0 | 0.00 | 0.68 | 0.68 | 99 | 1010.5 |
| 20260509164815 | 68 | 248 | 0.0 | 0.0 | 0.00 | 0.68 | 0.68 | 99 | 1010.6 |
| 20260509164312 | 68 | 248 | 0.0 | 0.0 | 0.00 | 0.68 | 0.68 | 99 | 1010.4 |
| 20260509163808 | 68 | 244 | 0.0 | 0.0 | 0.00 | 0.68 | 0.68 | 99 | 1010.4 |
| 20260509163304 | 68 | 246 | 0.0 | 0.0 | 0.00 | 0.68 | 0.68 | 99 | 1010.5 |
| 20260509162803 | 68 | 246 | 0.0 | 0.0 | 0.00 | 0.68 | 0.68 | 99 | 1010.5 |
| 20260509162257 | 68 | 247 | 0.0 | 0.0 | 0.00 | 0.68 | 0.68 | 99 | 1010.4 |
| 20260509161753 | 68 | 248 | 0.0 | 0.0 | 0.00 | 0.68 | 0.68 | 99 | 1010.3 |
| 20260509161250 | 68 | 251 | 0.0 | 0.0 | 0.00 | 0.68 | 0.68 | 99 | 1010.4 |
| 20260509160745 | 68 | 248 | 0.0 | 0.0 | 0.00 | 0.68 | 0.68 | 99 | 1010.1 |
| 20260509160242 | 67 | 247 | 0.0 | 0.0 | 0.00 | 0.68 | 0.68 | 99 | 1010.1 |
| 20260509155737 | 67 | 244 | 0.0 | 0.0 | 0.00 | 0.68 | 0.68 | 99 | 1010.3 |
| 20260509155234 | 67 | 242 | 0.0 | 0.0 | 0.00 | 0.68 | 0.68 | 99 | 1010.0 |
| 20260509154730 | 67 | 248 | 0.0 | 0.0 | 0.00 | 0.68 | 0.68 | 99 | 1010.0 |
| 20260509154227 | 66 | 244 | 0.0 | 0.0 | 0.00 | 0.68 | 0.68 | 99 | 1010.3 |
| 20260509153724 | 67 | 245 | 0.0 | 0.0 | 0.00 | 0.68 | 0.68 | 99 | 1010.4 |
| 20260509153220 | 66 | 241 | 0.0 | 0.0 | 0.00 | 0.68 | 0.68 | 99 | 1010.4 |
| 20260509152716 | 66 | 241 | 0.0 | 0.0 | 0.00 | 0.68 | 0.68 | 99 | 1010.4 |
| 20260509152213 | 66 | 239 | 0.0 | 0.0 | 0.00 | 0.68 | 0.68 | 99 | 1010.4 |
| 20260509151709 | 66 | 238 | 0.0 | 0.0 | 0.00 | 0.68 | 0.68 | 99 | 1010.3 |
| 20260509151206 | 66 | 240 | 0.0 | 0.0 | 0.00 | 0.68 | 0.68 | 99 | 1010.5 |
| 20260509150704 | 66 | 243 | 0.0 | 0.0 | 0.00 | 0.68 | 0.68 | 99 | 1010.3 |
| 20260509150202 | 66 | 237 | 0.0 | 0.0 | 0.00 | 0.68 | 0.68 | 99 | 1010.1 |
| 20260509145658 | 66 | 241 | 0.0 | 0.0 | 0.00 | 0.68 | 0.68 | 99 | 1010.1 |
| 20260509145154 | 66 | 245 | 0.0 | 0.0 | 0.00 | 0.68 | 0.68 | 99 | 1010.2 |
| 20260509144650 | 66 | 240 | 0.0 | 0.0 | 0.00 | 0.68 | 0.68 | 99 | 1010.2 |
| 20260509144147 | 66 | 240 | 0.0 | 0.0 | 0.00 | 0.68 | 0.68 | 99 | 1010.4 |
| 20260509143644 | 66 | 241 | 0.0 | 0.0 | 0.00 | 0.68 | 0.68 | 99 | 1010.1 |
| 20260509143142 | 66 | 247 | 0.0 | 0.0 | 0.00 | 0.68 | 0.68 | 99 | 1010.0 |
| 20260509142637 | 66 | 232 | 0.0 | 0.0 | 0.00 | 0.68 | 0.68 | 99 | 1010.1 |
| 20260509142134 | 66 | 241 | 0.0 | 0.0 | 0.00 | 0.68 | 0.68 | 99 | 1009.9 |
| 20260509141630 | 66 | 238 | 0.0 | 0.0 | 0.00 | 0.68 | 0.68 | 99 | 1009.9 |
| 20260509141126 | 66 | 241 | 0.0 | 0.0 | 0.00 | 0.68 | 0.68 | 99 | 1009.7 |
| 20260509140623 | 66 | 242 | 0.0 | 0.0 | 0.00 | 0.68 | 0.68 | 99 | 1009.7 |
| 20260509140121 | 66 | 241 | 0.0 | 0.0 | 0.00 | 0.68 | 0.68 | 99 | 1009.5 |
| 20260509135618 | 66 | 229 | 0.0 | 0.0 | 0.00 | 0.68 | 0.68 | 99 | 1009.4 |
| 20260509135116 | 66 | 243 | 0.0 | 0.0 | 0.00 | 0.68 | 0.68 | 99 | 1009.2 |
| 20260509134612 | 66 | 244 | 0.0 | 0.0 | 0.00 | 0.68 | 0.68 | 99 | 1009.6 |
| 20260509134110 | 66 | 241 | 0.0 | 0.0 | 0.00 | 0.68 | 0.68 | 99 | 1009.4 |
| 20260509133607 | 66 | 241 | 0.0 | 0.0 | 0.00 | 0.68 | 0.68 | 99 | 1009.3 |
| 20260509133104 | 65 | 242 | 0.0 | 0.0 | 0.00 | 0.68 | 0.68 | 99 | 1009.0 |
| 20260509132603 | 65 | 246 | 0.0 | 0.0 | 0.00 | 0.68 | 0.68 | 99 | 1008.9 |
| 20260509132101 | 65 | 247 | 0.0 | 0.0 | 0.00 | 0.68 | 0.68 | 99 | 1009.0 |
| 20260509131556 | 65 | 247 | 0.0 | 0.0 | 0.00 | 0.68 | 0.68 | 99 | 1009.1 |
| 20260509131054 | 65 | 242 | 0.0 | 0.0 | 0.00 | 0.68 | 0.68 | 99 | 1009.2 |
| 20260509130549 | 64 | 243 | 0.0 | 0.0 | 0.00 | 0.68 | 0.68 | 99 | 1009.2 |
| 20260509130046 | 64 | 232 | 0.0 | 0.0 | 0.00 | 0.68 | 0.68 | 99 | 1009.3 |
| 20260509125543 | 64 | 241 | 0.0 | 0.0 | 0.00 | 0.68 | 0.68 | 99 | 1008.8 |
| 20260509125039 | 64 | 242 | 0.0 | 0.0 | 0.00 | 0.68 | 0.68 | 99 | 1009.1 |
| 20260509124536 | 64 | 242 | 0.0 | 0.0 | 0.00 | 0.68 | 0.68 | 99 | 1009.1 |
| 20260509124033 | 64 | 239 | 0.0 | 0.0 | 0.00 | 0.68 | 0.68 | 99 | 1008.8 |
| 20260509123532 | 64 | 238 | 0.0 | 0.0 | 0.00 | 0.68 | 0.68 | 99 | 1008.5 |
| 20260509123027 | 64 | 255 | 0.0 | 0.0 | 0.00 | 0.68 | 0.68 | 99 | 1008.4 |
| 20260509122524 | 64 | 281 | 1.0 | 1.0 | 0.05 | 0.68 | 0.68 | 99 | 1008.5 |
| 20260509122021 | 64 | 251 | 0.0 | 0.0 | 0.05 | 0.68 | 0.68 | 99 | 1008.0 |
| 20260509121518 | 64 | 321 | 2.0 | 3.0 | 0.00 | 0.67 | 0.67 | 99 | 1007.3 |
| 20260509121016 | 63 | 249 | 0.0 | 0.0 | 0.00 | 0.67 | 0.67 | 99 | 1006.4 |
| 20260509120514 | 63 | 218 | 0.0 | 0.0 | 0.07 | 0.67 | 0.67 | 99 | 1004.6 |
| 20260509120012 | 63 | 199 | 0.0 | 0.0 | 0.14 | 0.67 | 0.67 | 99 | 1005.5 |
| 20260509115508 | 64 | 192 | 0.0 | 0.0 | 0.12 | 0.66 | 0.66 | 99 | 1005.9 |
| 20260509115006 | 64 | 196 | 0.0 | 0.0 | 0.12 | 0.65 | 0.65 | 99 | 1007.6 |
| 20260509114504 | 64 | 244 | 0.0 | 0.0 | 0.07 | 0.64 | 0.64 | 99 | 1008.4 |
| 20260509114003 | 64 | 239 | 0.0 | 0.0 | 0.05 | 0.63 | 0.63 | 99 | 1008.1 |
| 20260509113500 | 64 | 236 | 0.0 | 0.0 | 0.05 | 0.63 | 0.63 | 99 | 1008.6 |
| 20260509112957 | 64 | 242 | 0.0 | 0.0 | 0.07 | 0.62 | 0.62 | 99 | 1008.6 |
| 20260509112454 | 64 | 239 | 0.0 | 0.0 | 0.19 | 0.62 | 0.62 | 99 | 1008.6 |
| 20260509111950 | 64 | 241 | 0.0 | 0.0 | 0.12 | 0.61 | 0.61 | 99 | 1009.2 |
| 20260509111448 | 64 | 239 | 0.0 | 0.0 | 0.12 | 0.60 | 0.60 | 99 | 1009.2 |
| 20260509110946 | 64 | 243 | 0.0 | 0.0 | 0.05 | 0.59 | 0.59 | 99 | 1009.5 |
| 20260509110441 | 64 | 247 | 0.0 | 0.0 | 0.00 | 0.58 | 0.58 | 99 | 1009.2 |
| 20260509105939 | 64 | 248 | 0.0 | 0.0 | 0.00 | 0.58 | 0.58 | 99 | 1008.6 |
| 20260509105438 | 63 | 245 | 0.0 | 0.0 | 0.00 | 0.58 | 0.58 | 99 | 1008.5 |
| 20260509104934 | 63 | 245 | 0.0 | 0.0 | 0.07 | 0.58 | 0.58 | 99 | 1007.9 |
| 20260509104431 | 63 | 242 | 0.0 | 0.0 | 0.07 | 0.58 | 0.58 | 99 | 1007.2 |
| 20260509103928 | 63 | 249 | 0.0 | 0.0 | 0.00 | 0.57 | 0.57 | 99 | 1006.8 |
| 20260509103426 | 63 | 244 | 0.0 | 0.0 | 0.00 | 0.57 | 0.57 | 99 | 1007.6 |
| 20260509102924 | 63 | 244 | 0.0 | 0.0 | 0.05 | 0.57 | 0.57 | 99 | 1008.5 |
| 20260509102421 | 63 | 244 | 0.0 | 0.0 | 0.05 | 0.57 | 0.57 | 99 | 1008.7 |
| 20260509101917 | 63 | 215 | 0.0 | 0.0 | 0.07 | 0.56 | 0.56 | 99 | 1009.0 |
| 20260509101414 | 63 | 226 | 0.0 | 0.0 | 0.14 | 0.56 | 0.56 | 99 | 1008.5 |
| 20260509100911 | 64 | 216 | 0.0 | 0.0 | 0.12 | 0.55 | 0.55 | 99 | 1007.9 |
| 20260509100408 | 64 | 241 | 0.0 | 0.0 | 0.12 | 0.54 | 0.54 | 99 | 1008.0 |
| 20260509095905 | 64 | 242 | 0.0 | 0.0 | 0.07 | 0.53 | 0.53 | 99 | 1008.5 |
| 20260509095402 | 64 | 245 | 0.0 | 0.0 | 0.12 | 0.53 | 0.53 | 99 | 1007.7 |
| 20260509094859 | 63 | 237 | 0.0 | 0.0 | 0.17 | 0.52 | 0.52 | 99 | 1007.4 |
| 20260509094355 | 63 | 241 | 0.0 | 0.0 | 0.42 | 0.51 | 0.51 | 99 | 1007.4 |
| 20260509093854 | 64 | 244 | 0.0 | 0.0 | 1.32 | 0.49 | 0.49 | 99 | 1007.3 |